Regional Weather Roundup
Issued by NWS

Home | Current Version | Previous Version | Graphics & Text | Print | Product List | Glossary On
Versions: 1 2 3 4 5 6 7 8 9 10 11 12 13 14 15 16 17 18 19 20 21 22 23 24 25 26 27 28 29 30 31 32 33 34 35 36 37 38 39 40 41 42 43 44 45 46 47 48 49 50
000
ASUS43 KLOT 311806
RWRIL

ILLINOIS REGIONAL WEATHER ROUNDUP
NATIONAL WEATHER SERVICE CHICAGO/ROMEOVILLE IL
1200 PM CST SAT JAN 31 2015

NOTE: "FAIR" INDICATES FEW OR NO CLOUDS BELOW 12,000 FEET WITH NO
SIGNIFICANT WEATHER AND/OR OBSTRUCTIONS TO VISIBILITY.

* THESE STATIONS ARE NOT UNDER NWS QUALITY CONTROL. THEY ALSO MAY NOT
  REPORT WEATHER SUCH AS PRECIPITATION OR FOG.

ILZ001-002-007-009-015-016-024-311900-
NORTHWEST ILLINOIS

CITY           SKY/WX    TMP DP  RH WIND       PRES   REMARKS
MOLINE         CLOUDY    37  28  70 SW7       30.20F WCI  32
6HR MIN TEMP:  27; 6HR MAX TEMP:  37;

STERLING*        N/A    N/A N/A N/A MISG        N/A
SAVANNA*       CLOUDY    36  27  70 CALM      30.19F
$$

ILZ003-004-008-010-011-017-018-311900-
NORTH CENTRAL ILLINOIS

CITY           SKY/WX    TMP DP  RH WIND       PRES   REMARKS
ROCKFORD       CLOUDY    34  23  64 W7        30.20F WCI  28
6HR MIN TEMP:  21; 6HR MAX TEMP:  34;

FREEPORT*      CLOUDY    32  24  71 W10       30.19F WCI  24
ROCHELLE*      CLOUDY    33  26  78 W10       30.20F WCI  24
DE KALB*       CLOUDY    32  24  73 W13       30.19F WCI  22
PERU*          CLOUDY    38  29  70 W7        30.21F WCI  33
$$

ILZ005-006-012>014-019>023-311900-
NORTHEAST ILLINOIS

CITY           SKY/WX    TMP DP  RH WIND       PRES   REMARKS
CHICAGO-OHARE  PTSUNNY   35  23  61 W13       30.18F WCI  26
6HR MIN TEMP:  24; 6HR MAX TEMP:  35;

CHICAGO-MIDWAY PTSUNNY   37  24  59 SW13      30.20F WCI  29
6HR MIN TEMP:  26; 6HR MAX TEMP:  37;

AURORA         CLOUDY    35  24  64 W14       30.20F WCI  26
6HR MIN TEMP:  22; 6HR MAX TEMP:  35;

LANSING*       CLOUDY    37  26  63 SW13      30.21F WCI  29
JOLIET*        PTSUNNY   36  25  65 SW8       30.22F WCI  30
WAUKEGAN       MOSUNNY   35  21  56 VRB7      30.17F WCI  29
6HR MIN TEMP:  22; 6HR MAX TEMP:  35;

DUPAGE AIRPORT CLOUDY    33  23  66 SW10      30.19F WCI  25
6HR MIN TEMP:  19; 6HR MAX TEMP:  33;

KANKAKEE*      PTSUNNY   37  29  73 SW10      30.24F WCI  29
WHEELING       MOSUNNY   36  22  56 W12       30.19F WCI  28
6HR MIN TEMP:  24; 6HR MAX TEMP:  36;

MORRIS*        PTSUNNY   36  29  76 W12       30.21F WCI  27
ROMEOVILLE*    PTSUNNY   36  25  64 W16       30.21F WCI  26
NORTHERLY ISL    N/A     36  22  57 W7          N/A  WCI  30
$$

LMZ740>746-311900-
SOUTHERN LAKE MICHIGAN

STATION/POSITION SKY/WX   TEMP    WIND        PRES    VSBY  WAVE
                          AIR SEA DIR/SP/G                  HT/PER
                          (F)     (DEG/KT/KT) (MB)    (MI)  (FT/S)
WAUKEGAN HARBOR            33     250/ 12/ 16   N/A
HARRISON CRIB              35     250/ 12/ 16   N/A
BURNHAM HARBOR             36     260/  9/ 16   N/A
CALUMET HARBOR             36     230/  8/ 15   N/A
MICHIGAN CITY              35     190/ 12/ 15   N/A
$$

ILZ025>027-034>036-040-047-049-050-058-095>099-311900-
WEST-CENTRAL ILLINOIS

CITY           SKY/WX    TMP DP  RH WIND       PRES   REMARKS
QUINCY         LGT RAIN  35  27  72 SW12      30.26F WCI  27
GALESBURG*     CLOUDY    36  29  76 SW8       30.23F WCI  30
MACOMB*        LGT RAIN  35  31  83 SW7       30.26F WCI  30
JACKSONVILLE*  CLOUDY    39  26  58 SW8       30.27F WCI  33
PITTSFIELD*    CLOUDY    38  25  59 SW7       30.28S WCI  33
$$

ILZ028>032-037-038-041>044-048-051>054-059>061-311900-
CENTRAL ILLINOIS

CITY           SKY/WX    TMP DP  RH WIND       PRES   REMARKS
PONTIAC        CLOUDY    37  29  73 SW8       30.23F WCI  30
BLOOMINGTON    CLOUDY    37  28  70 SW12      30.24F WCI  29
DECATUR        CLOUDY    38  27  64 SW12      30.28F WCI  30
PEORIA         CLOUDY    39  25  57 SW7       30.25F WCI  34
6HR MIN TEMP:  26; 6HR MAX TEMP:  39;

LACON*         CLOUDY    37  26  62 SW7       30.22F WCI  32
LINCOLN*       CLOUDY    40  26  58 SW5       30.27F
SPRINGFIELD    CLOUDY    38  26  62 SW7       30.28F WCI  33
6HR MIN TEMP:  29; 6HR MAX TEMP:  38;

TAYLORVILLE    CLOUDY    34  28  80 SW9       30.29F WCI  26
$$

ILZ033-039-045-046-055>057-062-063-311900-
EAST-CENTRAL ILLINOIS

CITY           SKY/WX    TMP DP  RH WIND       PRES   REMARKS
CHAMPAIGN      CLOUDY    37  28  70 SW13      30.27F WCI  29
DANVILLE*      CLOUDY    35  27  72 SW14      30.25F WCI  25
RANTOUL*       CLOUDY    38  30  74 SW14      30.26F WCI  29
MATTOON        CLOUDY    35  25  66 SW10      30.29F WCI  27
PARIS*         CLOUDY    38  29  71 SW13      30.30F WCI  30
$$

ILZ079-100>102-311900-
SOUTHWEST ILLINOIS

CITY           SKY/WX    TMP DP  RH WIND       PRES   REMARKS
ALTON          CLOUDY    39  25  56 S7        30.31F WCI  34
BELLEVILLE     CLOUDY    40  27  59 S5        30.31F
CAHOKIA*       CLOUDY    42  24  49 SW6       30.31F
SPARTA*        CLOUDY    41  26  54 S7        30.34S
$$

ILZ064>066-069>071-074>076-080>082-084>086-088>090-092>094-311900-
SOUTH-CENTRAL ILLINOIS

CITY           SKY/WX    TMP DP  RH WIND       PRES   REMARKS
CARBONDALE     CLOUDY    42  23  46 SW7       30.34F
6HR MIN TEMP:  27; 6HR MAX TEMP:  42;

CAIRO*         CLOUDY    43  28  54 SW6       30.37F
EFFINGHAM*     CLOUDY    37  23  56 S6        30.33F WCI  33
MARION         CLOUDY    43  25  49 S8        30.35F
MT. VERNON     CLOUDY    39  27  60 SW10      30.34F WCI  32
CENTRALIA*     CLOUDY    38  25  59 SW8       30.32F WCI  32
SALEM*         CLOUDY    41  27  56 SW10      30.33F
METROPOLIS*    CLOUDY    43  25  50 S6        30.36F
$$

ILZ067-068-072-073-078-083-087-091-311900-
SOUTHEAST ILLINOIS

CITY           SKY/WX    TMP DP  RH WIND       PRES   REMARKS
LAWRENCEVILLE  CLOUDY    39  25  57 SW9       30.35F WCI  33
FLORA*         CLOUDY    38  27  65 S6        30.33F WCI  33
FAIRFIELD*     CLOUDY    40  28  64 SW8       30.33F
HARRISBURG*    CLOUDY    40  25  56 SW6       30.37F
ROBINSON*      CLOUDY    38  26  61 SW8       30.35F WCI  32
CARMI*         CLOUDY    41  30  63 S6        30.34F
$$

ABBREVIATIONS USED IN REMARKS
   TC - TEMPERATURE IN CELSIUS
  WCI - WIND CHILL INDEX
   HX - HEAT INDEX
  VSB - VISIBILITY
$$



USA.gov is the U.S. government's official web portal to all federal, state and local government web resources and services.